Regional Weather Roundup
Issued by NWS

Home | Current Version | Previous Version | Text Only | Print | Product List | Glossary On
Versions: 1 2 3 4 5 6 7 8 9 10 11 12 13 14 15 16 17 18 19 20 21 22 23 24 25 26 27 28 29 30 31 32 33 34 35 36 37 38 39 40 41 42 43 44 45 46 47 48 49 50
000
ASUS45 KPSR 241610
RWRAZ

ARIZONA REGIONAL HOURLY WEATHER ROUNDUP
NATIONAL WEATHER SERVICE PHOENIX AZ
900 AM MST THU JUL 24 2014

NOTE: FAIR INDICATES FEW OR NO CLOUDS BELOW 12,000 FEET WITH NO
SIGNIFICANT WEATHER AND/OR OBSTRUCTIONS TO VISIBILITY.

AZZ001>003-036-241700-
NORTHWEST ARIZONA

CITY           SKY/WX    TMP DP  RH WIND       PRES   REMARKS
BULLHEAD CITY  SUNNY     99  48  18 CALM      29.83S
KINGMAN        MOSUNNY   93  49  22 VRB5      30.05S
$$

AZZ004>008-015-016-018-241700-
NORTH CENTRAL ARIZONA

CITY           SKY/WX    TMP DP  RH WIND       PRES   REMARKS
GRAND CANYON   PTSUNNY   78  50  37 SW6       30.36R
WILLIAMS       CLOUDY    73  54  49 SE12      30.42S
PRESCOTT       PTSUNNY   85  52  32 SE10      30.22F
FLAGSTAFF      CLOUDY    68  54  60 SW7       30.40S
PAYSON         PTSUNNY   81  52  36 NE8       30.26F
PAGE           CLOUDY    86  53  32 VRB6      30.15R
$$

AZZ009>014-017-241700-
NORTHEAST ARIZONA

CITY           SKY/WX    TMP DP  RH WIND       PRES   REMARKS
WINSLOW        PTSUNNY   82  57  42 E10       30.24F
SAINT JOHNS    SUNNY     81  47  30 S10       30.30F
WINDOW ROCK    MOSUNNY   80  48  32 S12       30.39F
SHOW LOW       SUNNY     77  43  29 S16       30.37F
$$

AZZ023-241700-
GREATER PHOENIX AREA

CITY           SKY/WX    TMP DP  RH WIND       PRES   REMARKS
PHOENIX        MOSUNNY  102  58  23 E9        29.86S HX 102
BUCKEYE          N/A    100  57  23 E17       29.86S
GLENDALE       PTSUNNY  100  63  28 NE5       29.88S HX 102
LUKE AFB       NOT AVBL
DEER VALLEY    MOSUNNY  100  55  22 E12       29.89F
SCOTTSDALE     MOSUNNY   99  59  26 E6        29.91S
MESA-FALCON    MOSUNNY   99  59  26 N12       29.89S
CHANDLER       MOSUNNY   99  64  32 E8          N/A  HX 101
$$

AZZ027-028-241700-
SOUTHWEST MARICOPA COUNTY AND PINAL COUNTY

CITY           SKY/WX    TMP DP  RH WIND       PRES   REMARKS
CASA GRANDE    SUNNY     97  63  32 SE6       29.91S
GILA BEND      PTSUNNY  104  57  21 NW7       29.85R HX 103
$$

AZZ503-504-507>509-241700-
SOUTHEAST ARIZONA

CITY           SKY/WX    TMP DP  RH WIND       PRES   REMARKS
TUCSON         SUNNY     97  46  17 SE13      30.01F
DAVIS-MONTHAN  SUNNY     96  46  17 SE14      29.99F
RYAN FIELD       N/A     91  61  35 E7        29.99F
SIERRA VISTA   CLOUDY    84  46  26 S5        30.19S
DOUGLAS        SUNNY     88  48  25 E8        30.15F
SAFFORD        SUNNY     91  50  24 E12G20    30.10S
$$

AZZ020-021-025-026-031-241700-
SOUTHWEST ARIZONA

CITY           SKY/WX    TMP DP  RH WIND       PRES   REMARKS
YUMA           NOT AVBL
$$

CAZ031-033-041-043-047-048-061-241700-
SOUTHERN CALIFORNIA

CITY           SKY/WX    TMP DP  RH WIND       PRES   REMARKS
DOWNTOWN L.A.  SUNNY     77  62  59 W3        29.86F
L.A. AIRPORT   MOSUNNY   76  62  62 CALM      29.86F
SAN DIEGO      MOSUNNY   72  64  76 VRB6      29.88S
BURBANK        SUNNY     79  52  38 CALM      29.88F
ONTARIO        MOSUNNY   79  55  43 CALM      29.89S
RIVERSIDE      SUNNY     80  50  34 SW3       29.89S
PALM SPRINGS   SUNNY     99  40  13 SE6       29.80R
EL CENTRO NAS  PTSUNNY   99  55  23 CALM      29.75S
IMPERIAL       SUNNY    101  54  20 CALM      29.74S
BLYTHE         MOSUNNY   97  40  14 NE3       29.80R
NEEDLES        SUNNY    102  49  16 VRB3      29.83S
$$

NVZ020-UTZ003-241700-
SOUTHERN NEVADA-UTAH

CITY           SKY/WX    TMP DP  RH WIND       PRES   REMARKS
LAS VEGAS      MOSUNNY   98  30   9 S13       29.88R
SALT LAKE CITY PTSUNNY   83  44  25 N13       30.05R
$$

NMZ009-TXZ055-241700-
NEW MEXICO-WEST TEXAS

CITY           SKY/WX    TMP DP  RH WIND       PRES   REMARKS
ALBUQUERQUE    MOSUNNY   80  49  33 SW5       30.33F
EL PASO        MOSUNNY   85  55  35 S5        30.20F
$$


........................KEY........................
SKY/WX - SKY CONDITION/WEATHER
TMP    - TEMPERATURE IN FAHRENHEIT
DP     - DEW POINT IN FAHRENHEIT
RH     - RELATIVE HUMIDITY IN PERCENT
WIND   - DIRECTION AND SPEED IN MILES PER HOUR (MPH)
VRB    - VARIABLE WIND DIRECTION
PRES   - MEAN SEA LEVEL PRESSURE IN INCHES OF MERCURY
         F - FALLING PRESSURE   R - RISING PRESSURE
         S - STEADY PRESSURE
VSB    - VISIBILITY IN MILES
HX     - HEAT INDEX IN FAHRENHEIT
WCI    - WIND CHILL INDEX IN FAHRENHEIT
TC     - TEMPERATURE IN CELSIUS WHICH IS ALSO KNOWN AS
         TEMPERATURE IN CENTIGRADE
AFB    - AIR FORCE BASE
         LUKE AFB IS LUKE AIR FORCE BASE
         DAVIS-MONTHAN IS DAVIS-MONTHAN AIR FORCE BASE
NAS    - NAVAL AIR STATION
         EL CENTRO NAS IS EL CENTRO NAVAL AIR STATION
N/A    - NOT AVAILABLE



USA.gov is the U.S. government's official web portal to all federal, state and local government web resources and services.